Rechercher aéroport 
image banner adimage banner ad
image banner ad

EVAD - Adazi

Situé à Adazi, Latvia

ICAO - EVAD, IATA -

Données fournies par Airmate  

Information générale

Coordonnées: N57°5'55" E24°15'60"
Élévation : 8 feet MSL.
Variation magnétique : 5° East
Évalué:
Voir évaluations: [VIEW]


Voir autres Aéroports à Riga District

Données opérationnelles

Accessible au public
Heure actuelle UTC:
Heure actuelle locale:
Météo à : EVRA - Riga ( 26 km )
METAR: EVRA 260620Z 02003KT 330V070 CAVOK 15/09 Q1031 NOSIG
TAF: TAF EVRA 260501Z 2606/2706 34007KT CAVOK TEMPO 2620/2703 3000 BR PROB40 TEMPO 2620/2706 0700 FG VV001
Voir NOTAMs / SUP AIP / TFR affectant cet aéroport [VIEW]
Fréquences de communication: [VIEW]

Pistes:

Identifiant RWYQFULongueur (ft)Largeur (ft)SurfaceLDA (ft)
15155°193649ASP+GRS1667
33335°193649ASP+GRS1568

Coordonnées de l'aéroport

Adresse: Adazi Latvia

Autres services d'aviation

Écoles de pilotage

Tmg

Tmg
info@tmg-ato.com+37129259085

Clubs d'aviation (sans but lucratif)

First Fly

First Fly

Vue satellite de EVAD